FW8114 Weather Reports


time (UTC)temp
C
wind
direction
speed
KPH
gust
KPH
rain 1hr
cm
rain 24hr
cm
rain mn
cm
humidity
%
barometer
mb
20260506202549 17 213 3.2 4.8 0.00 0.20 0.20 89 1007.5
20260506202046 17 229 4.8 4.8 0.00 0.20 0.20 90 1007.7
20260506201544 17 187 4.8 8.0 0.00 0.20 0.20 90 1007.3
20260506201040 17 236 4.8 4.8 0.00 0.20 0.20 91 1007.7
20260506200536 17 233 3.2 3.2 0.00 0.20 0.20 92 1007.6
20260506200033 17 256 4.8 4.8 0.00 0.20 0.20 92 1007.6
20260506195530 16 220 4.8 8.0 0.00 0.20 0.20 93 1007.7
20260506195026 16 200 4.8 4.8 0.00 0.20 0.20 93 1007.8
20260506194524 16 193 6.4 11.3 0.00 0.20 0.20 93 1007.7
20260506194020 16 264 4.8 4.8 0.00 0.20 0.20 93 1008.0
20260506193517 16 236 3.2 3.2 0.13 0.20 0.20 93 1008.0
20260506193014 16 219 6.4 8.0 0.13 0.20 0.20 93 1008.2
20260506192511 16 248 1.6 3.2 0.00 0.18 0.18 92 1008.2
20260506192007 16 185 6.4 8.0 0.00 0.18 0.18 92 1008.3
20260506191504 16 241 4.8 4.8 0.00 0.18 0.18 92 1008.4
20260506191000 16 239 3.2 4.8 0.00 0.18 0.18 91 1008.5
20260506190457 17 245 6.4 9.7 0.00 0.18 0.18 90 1008.3
20260506185954 17 171 4.8 8.0 0.00 0.18 0.18 88 1008.3
20260506185451 17 221 12.9 17.7 0.00 0.18 0.18 86 1008.3
20260506184948 17 255 8.0 9.7 0.00 0.18 0.18 86 1008.5
20260506184445 17 180 11.3 16.1 0.00 0.18 0.18 88 1008.3
20260506183942 17 201 9.7 11.3 0.00 0.18 0.18 88 1008.3
20260506183438 17 235 1.6 3.2 0.00 0.18 0.18 88 1008.4
20260506182935 17 203 1.6 3.2 0.00 0.18 0.18 90 1008.2
20260506182432 17 260 3.2 8.0 0.00 0.18 0.18 91 1008.2
20260506181929 17 225 3.2 3.2 0.00 0.18 0.18 89 1008.5
20260506181427 17 241 1.6 3.2 0.00 0.18 0.18 89 1008.2
20260506180924 17 178 4.8 8.0 0.00 0.18 0.18 89 1008.6
20260506180420 17 205 1.6 3.2 0.00 0.18 0.18 89 1008.4
20260506175917 17 232 1.6 1.6 0.00 0.18 0.18 89 1008.6
20260506175414 17 224 6.4 8.0 0.00 0.18 0.18 88 1008.7
20260506174910 17 236 3.2 3.2 0.00 0.18 0.18 89 1008.7
20260506174408 17 222 0.0 1.6 0.00 0.18 0.18 88 1009.0
20260506173905 17 209 4.8 4.8 0.00 0.18 0.18 88 1008.8
20260506173402 17 208 4.8 8.0 0.00 0.18 0.18 88 1008.7
20260506172859 17 226 4.8 8.0 0.00 0.18 0.18 88 1008.7
20260506172356 17 232 1.6 3.2 0.00 0.18 0.18 89 1008.9
20260506171853 18 253 3.2 4.8 0.00 0.18 0.18 89 1008.9
20260506171350 17 203 1.6 1.6 0.18 0.18 0.18 89 1008.6
20260506170848 17 203 0.0 1.6 0.18 0.18 0.18 90 1008.8
20260506170344 17 224 3.2 3.2 0.13 0.15 0.15 90 1008.6
20260506165843 17 212 1.6 1.6 0.13 0.15 0.15 90 1008.9
20260506165341 17 225 0.0 1.6 0.00 0.13 0.13 90 1008.6
20260506164837 17 214 0.0 1.6 0.00 0.13 0.13 90 1008.8
20260506164333 17 221 1.6 1.6 0.00 0.13 0.13 89 1009.2
20260506163831 17 225 1.6 3.2 0.00 0.13 0.13 89 1009.2
20260506163326 17 216 1.6 3.2 0.18 0.13 0.13 89 1009.4
20260506162821 17 238 3.2 3.2 0.18 0.13 0.13 89 1009.7
20260506162320 17 211 3.2 3.2 0.13 0.10 0.10 88 1009.6
20260506161817 17 244 6.4 9.7 0.30 0.10 0.10 88 1010.1
20260506161314 17 188 8.0 12.9 0.18 0.08 0.08 87 1010.0
20260506160812 17 229 1.6 1.6 0.13 0.05 0.05 86 1009.8
20260506160308 17 209 1.6 3.2 0.13 0.05 0.05 85 1010.1
20260506155807 17 199 1.6 3.2 0.00 0.03 0.03 85 1010.3
20260506155305 18 229 3.2 4.8 0.18 0.03 0.03 83 1010.2
20260506153415 18 225 1.6 4.8 0.00 0.00 0.00 80 1010.0
20260506152913 19 199 4.8 8.0 0.00 0.00 0.00 79 1009.9
20260506152410 19 191 3.2 3.2 0.00 0.00 0.00 78 1010.0
20260506151909 19 229 0.0 0.0 0.00 0.00 0.00 77 1010.0
20260506151405 19 250 3.2 9.7 0.00 0.00 0.00 76 1009.8
20260506150903 20 246 6.4 8.0 0.00 0.00 0.00 74 1009.8
20260506150358 20 254 4.8 4.8 0.00 0.00 0.00 73 1009.8
20260506145855 20 240 8.0 11.3 0.00 0.00 0.00 73 1010.1
20260506145351 20 246 11.3 14.5 0.00 0.00 0.00 72 1010.2
20260506144849 20 260 9.7 12.9 0.00 0.00 0.00 71 1010.3
20260506144345 20 186 4.8 4.8 0.00 0.00 0.00 70 1010.2
20260506143844 20 239 11.3 12.9 0.00 0.00 0.00 70 1010.0
20260506143341 20 248 1.6 3.2 0.00 0.00 0.00 70 1010.0
20260506142839 20 262 8.0 11.3 0.00 0.00 0.00 70 1009.9
20260506142337 20 226 0.0 0.0 0.00 0.00 0.00 70 1010.3
20260506141835 20 248 1.6 3.2 0.00 0.00 0.00 70 1009.9
20260506141333 20 221 3.2 3.2 0.00 0.00 0.00 70 1009.9
20260506140830 20 203 8.0 11.3 0.00 0.00 0.00 71 1009.9
20260506140327 20 259 6.4 8.0 0.00 0.00 0.00 71 1010.0
20260506135824 20 197 4.8 8.0 0.00 0.00 0.00 71 1010.0
20260506135320 20 254 9.7 11.3 0.00 0.00 0.00 71 1010.0
20260506134817 20 217 9.7 12.9 0.00 0.00 0.00 71 1010.0
20260506134313 20 188 4.8 8.0 0.00 0.00 0.00 71 1010.0
20260506133811 20 129 8.0 11.3 0.00 0.00 0.00 71 1010.2
20260506133307 20 195 8.0 14.5 0.00 0.00 0.00 71 1010.3
20260506132804 20 170 4.8 4.8 0.00 0.00 0.00 71 1010.1
20260506132301 20 244 9.7 14.5 0.00 0.00 0.00 71 1010.2
20260506131759 20 207 4.8 4.8 0.00 0.00 0.00 72 1010.5
20260506131255 20 242 9.7 12.9 0.00 0.00 0.00 71 1010.2
20260506130752 20 143 6.4 8.0 0.00 0.00 0.00 71 1010.2
20260506130249 19 265 1.6 3.2 0.00 0.00 0.00 72 1010.4
20260506125747 19 225 4.8 8.0 0.00 0.00 0.00 73 1010.4
20260506125245 19 175 8.0 16.1 0.00 0.00 0.00 72 1010.1
20260506124743 19 234 0.0 1.6 0.00 0.00 0.00 73 1009.9
20260506124240 19 217 8.0 11.3 0.00 0.00 0.00 73 1010.0
20260506123737 19 280 8.0 9.7 0.00 0.00 0.00 73 1010.0
20260506123236 19 192 6.4 8.0 0.00 0.00 0.00 73 1009.7
20260506122732 19 235 4.8 9.7 0.00 0.00 0.00 73 1010.0
20260506122230 19 196 3.2 3.2 0.00 0.00 0.00 74 1010.0
20260506121728 18 249 9.7 12.9 0.00 0.00 0.00 74 1010.0
20260506121224 18 190 8.0 9.7 0.00 0.00 0.00 74 1010.2
20260506120722 18 181 6.4 9.7 0.00 0.00 0.00 75 1010.1
20260506120219 18 197 1.6 3.2 0.00 0.00 0.00 76 1010.1
20260506115717 18 244 0.0 0.0 0.00 0.00 0.00 75 1010.2
20260506115215 18 236 4.8 9.7 0.00 0.00 0.00 75 1010.3
20260506114712 18 221 6.4 8.0 0.00 0.00 0.00 75 1010.4
20260506114210 18 201 0.0 1.6 0.00 0.00 0.00 75 1010.5
20260506113708 18 190 4.8 8.0 0.00 0.00 0.00 75 1010.4
20260506113205 18 150 6.4 11.3 0.00 0.00 0.00 75 1010.5
20260506112701 18 203 8.0 14.5 0.00 0.00 0.00 75 1010.3
20260506112159 18 222 0.0 0.0 0.00 0.00 0.00 76 1010.3
20260506111656 18 160 4.8 9.7 0.00 0.00 0.00 76 1010.4
20260506111154 18 288 8.0 11.3 0.00 0.00 0.00 76 1010.3
20260506110651 18 201 4.8 4.8 0.00 0.00 0.00 76 1010.1
20260506110149 18 244 3.2 4.8 0.00 0.00 0.00 77 1010.1
20260506105645 18 220 4.8 4.8 0.00 0.00 0.00 77 1010.2
20260506105142 18 233 0.0 0.0 0.00 0.00 0.00 78 1010.0
20260506104640 17 207 0.0 1.6 0.00 0.00 0.00 79 1010.3
20260506104137 17 218 1.6 1.6 0.00 0.00 0.00 79 1010.0
20260506103635 17 216 0.0 1.6 0.00 0.00 0.00 79 1010.1
20260506103131 17 226 0.0 0.0 0.00 0.00 0.00 79 1010.1
20260506102630 17 213 0.0 0.0 0.00 0.00 0.00 79 1010.1
20260506102127 17 232 0.0 0.0 0.00 0.00 0.00 79 1010.1
20260506101623 17 196 3.2 3.2 0.00 0.00 0.00 79 1010.1
20260506101120 17 224 0.0 0.0 0.00 0.00 0.00 80 1010.0
20260506100619 17 192 0.0 0.0 0.00 0.00 0.00 80 1010.0
20260506100116 17 236 0.0 0.0 0.00 0.00 0.00 80 1009.9
20260506095615 17 209 0.0 0.0 0.00 0.00 0.00 80 1010.0
20260506095111 17 212 1.6 1.6 0.00 0.00 0.00 80 1009.9
20260506094609 17 217 0.0 0.0 0.00 0.00 0.00 80 1009.9
20260506094106 17 216 0.0 0.0 0.00 0.00 0.00 80 1009.7
20260506093604 17 190 8.0 9.7 0.00 0.00 0.00 80 1009.8
20260506093101 17 216 4.8 4.8 0.00 0.00 0.00 81 1009.7
20260506092559 17 203 1.6 1.6 0.00 0.00 0.00 81 1009.9
20260506092056 17 165 1.6 3.2 0.00 0.00 0.00 82 1010.0
20260506091554 17 223 0.0 1.6 0.00 0.00 0.00 82 1009.9
20260506091051 17 221 0.0 0.0 0.00 0.00 0.00 82 1009.9
20260506090549 17 216 0.0 0.0 0.00 0.00 0.00 82 1010.3
20260506090045 17 235 0.0 0.0 0.00 0.00 0.00 81 1010.0
20260506085542 17 230 0.0 0.0 0.00 0.00 0.00 81 1009.9
20260506085038 17 206 0.0 1.6 0.00 0.00 0.00 81 1010.0
20260506084536 17 211 1.6 1.6 0.00 0.00 0.00 81 1010.2
20260506084031 17 221 0.0 0.0 0.00 0.00 0.00 81 1010.0
20260506083529 17 221 0.0 0.0 0.00 0.00 0.00 80 1010.1
20260506083026 17 208 0.0 0.0 0.00 0.00 0.00 80 1010.1
20260506082523 17 205 0.0 0.0 0.00 0.00 0.00 80 1010.0
20260506082019 17 215 0.0 1.6 0.00 0.00 0.00 79 1009.8
20260506081517 17 212 0.0 1.6 0.00 0.00 0.00 79 1010.2
20260506081014 17 213 4.8 8.0 0.00 0.00 0.00 79 1010.2
20260506080511 17 179 1.6 3.2 0.00 0.00 0.00 79 1010.3
20260506073455 17 224 0.0 0.0 0.00 0.00 0.00 78 1010.1
20260506072952 17 225 0.0 0.0 0.00 0.00 0.00 78 1010.1
20260506072449 17 225 0.0 0.0 0.00 0.00 0.00 77 1010.3
20260506071947 17 242 0.0 0.0 0.00 0.00 0.00 77 1010.3
20260506071445 17 219 1.6 1.6 0.00 0.00 0.00 77 1010.1
20260506070941 17 178 1.6 3.2 0.00 0.00 0.00 77 1010.2
20260506070438 17 211 0.0 0.0 0.00 0.00 0.00 77 1010.3
20260506062416 18 187 1.6 1.6 0.00 0.00 0.00 74 1010.8
20260506061912 18 199 0.0 0.0 0.00 0.00 0.00 74 1010.6
20260506061408 18 195 1.6 1.6 0.00 0.00 0.00 74 1010.8
20260506060906 17 215 0.0 0.0 0.00 0.00 0.00 75 1010.7
20260506060404 17 223 0.0 0.0 0.00 0.00 0.00 74 1010.5
20260506051336 19 238 0.0 0.0 0.00 0.00 0.00 69 1011.0
20260506050834 19 185 1.6 1.6 0.00 0.00 0.00 68 1011.3
20260506050331 19 215 0.0 0.0 0.00 0.00 0.00 69 1011.2
20260506044821 19 216 3.2 3.2 0.00 0.00 0.00 67 1011.0
20260506044319 19 203 1.6 1.6 0.00 0.00 0.00 67 1011.0
20260506043816 20 192 0.0 0.0 0.00 0.00 0.00 66 1010.9
20260506043313 20 209 0.0 0.0 0.00 0.00 0.00 66 1010.9
20260506042812 20 211 0.0 1.6 0.00 0.00 0.00 65 1011.0
20260506042311 20 203 0.0 0.0 0.00 0.00 0.00 65 1011.2
20260506041809 20 195 4.8 8.0 0.00 0.00 0.00 64 1010.8
20260506041305 20 188 1.6 3.2 0.00 0.00 0.00 64 1011.2
20260506040803 20 211 4.8 8.0 0.00 0.00 0.00 64 1011.1
20260506040259 20 201 1.6 3.2 0.00 0.00 0.00 63 1010.9
20260506035756 20 212 3.2 4.8 0.00 0.00 0.00 64 1011.0
20260506035253 20 220 0.0 1.6 0.00 0.00 0.00 63 1011.3
20260506034750 20 226 4.8 4.8 0.00 0.00 0.00 62 1010.9
20260506034248 20 222 0.0 0.0 0.00 0.00 0.00 63 1010.8
20260506033744 20 203 0.0 0.0 0.00 0.00 0.00 63 1010.9
20260506033241 20 216 0.0 0.0 0.00 0.00 0.00 62 1010.8
20260506032738 20 219 0.0 1.6 0.00 0.00 0.00 63 1010.9
20260506032235 20 189 4.8 4.8 0.00 0.00 0.00 62 1010.9
20260506031732 20 190 6.4 8.0 0.00 0.00 0.00 61 1011.0
20260506031230 20 207 3.2 3.2 0.00 0.00 0.00 62 1010.8
20260506030728 20 180 0.0 0.0 0.00 0.00 0.00 62 1010.9
20260506030225 21 193 3.2 8.0 0.00 0.00 0.00 61 1010.9
20260506025721 20 212 4.8 8.0 0.00 0.00 0.00 61 1010.9
20260506025218 21 221 1.6 3.2 0.00 0.00 0.00 61 1010.7
20260506024715 21 228 1.6 1.6 0.00 0.00 0.00 60 1011.1
20260506024211 21 208 1.6 1.6 0.00 0.00 0.00 60 1011.2
20260506023708 21 230 1.6 1.6 0.00 0.00 0.00 60 1010.9
20260506023205 21 213 3.2 3.2 0.00 0.00 0.00 60 1011.0
20260506022702 21 225 4.8 8.0 0.00 0.00 0.00 59 1010.9
20260506022159 21 218 0.0 0.0 0.00 0.00 0.00 59 1010.8
20260506021657 21 163 3.2 9.7 0.00 0.00 0.00 59 1011.0
20260506021154 21 227 4.8 4.8 0.00 0.00 0.00 58 1010.8
20260506020651 22 227 3.2 4.8 0.00 0.00 0.00 57 1010.9
20260506020149 22 202 4.8 8.0 0.00 0.00 0.00 56 1010.7
20260506015646 22 234 3.2 4.8 0.00 0.00 0.00 56 1010.7
20260506015143 22 223 0.0 0.0 0.00 0.00 0.00 56 1010.7
20260506014641 22 209 3.2 3.2 0.00 0.00 0.00 55 1010.6
20260506014136 22 237 8.0 17.7 0.00 0.00 0.00 54 1010.6
20260506013635 22 225 1.6 3.2 0.00 0.00 0.00 52 1010.4
20260506013131 22 210 1.6 3.2 0.00 0.00 0.00 51 1010.4
20260506012627 23 210 3.2 3.2 0.00 0.00 0.00 49 1010.4
20260506012124 23 216 4.8 4.8 0.00 0.00 0.00 48 1010.3
20260506011621 23 255 8.0 11.3 0.00 0.00 0.00 47 1010.2
20260506011112 23 211 1.6 3.2 0.00 0.00 0.00 47 1010.0
20260506010606 23 178 8.0 11.3 0.00 0.00 0.00 46 1010.2
20260506005559 23 228 1.6 1.6 0.00 0.00 0.00 46 1009.9
20260506005055 23 234 3.2 4.8 0.00 0.00 0.00 45 1009.8
20260506004552 23 212 6.4 9.7 0.00 0.00 0.00 44 1009.7
20260506004049 23 244 6.4 9.7 0.00 0.00 0.00 45 1009.7
20260506003545 24 209 1.6 1.6 0.00 0.00 0.00 45 1009.6
20260506003042 24 206 1.6 1.6 0.00 0.00 0.00 44 1009.6
20260506002537 24 219 6.4 8.0 0.00 0.00 0.00 44 1009.6
20260506002034 24 158 4.8 8.0 0.00 0.00 0.00 44 1009.3
20260506001530 24 199 0.0 0.0 0.00 0.00 0.00 45 1009.5
20260506001027 25 200 3.2 4.8 0.00 0.00 0.00 43 1009.6
20260506000525 25 234 8.0 11.3 0.00 0.00 0.00 43 1009.4
20260506000022 25 177 1.6 3.2 0.00 0.00 0.00 43 1009.3
20260505235520 25 142 4.8 4.8 0.00 0.00 0.00 42 1009.4
20260505235016 25 218 1.6 3.2 0.00 0.00 0.00 41 1009.4
20260505234514 25 120 4.8 4.8 0.00 0.00 0.00 39 1009.4
20260505234010 25 213 3.2 3.2 0.00 0.00 0.00 39 1009.1
20260505233508 25 230 0.0 0.0 0.00 0.00 0.00 39 1009.2
20260505233005 25 220 14.5 20.9 0.00 0.00 0.00 38 1009.1
20260505232503 25 238 4.8 8.0 0.00 0.00 0.00 38 1009.2
20260505232000 26 226 4.8 4.8 0.00 0.00 0.00 38 1009.1
20260505231457 26 238 6.4 11.3 0.00 0.00 0.00 37 1009.0
20260505230955 26 221 8.0 11.3 0.00 0.00 0.00 36 1008.8
20260505230453 26 218 8.0 11.3 0.00 0.00 0.00 35 1008.8
20260505225949 26 221 1.6 3.2 0.00 0.00 0.00 34 1008.6
20260505225446 26 187 9.7 11.3 0.00 0.00 0.00 34 1008.8
20260505224942 26 239 3.2 4.8 0.00 0.00 0.00 35 1008.7
20260505224439 26 243 14.5 20.9 0.00 0.00 0.00 34 1008.7
20260505223936 26 294 4.8 8.0 0.00 0.00 0.00 35 1008.7
20260505223433 26 235 11.3 12.9 0.00 0.00 0.00 34 1008.5
20260505222929 26 207 4.8 8.0 0.00 0.00 0.00 35 1008.7
20260505222426 26 235 3.2 4.8 0.00 0.00 0.00 35 1008.6
20260505221922 27 247 3.2 3.2 0.00 0.00 0.00 34 1008.8
20260505221419 26 155 6.4 8.0 0.00 0.00 0.00 33 1008.7
20260505220916 27 293 9.7 12.9 0.00 0.00 0.00 33 1008.8
20260505220413 27 245 14.5 22.5 0.00 0.00 0.00 32 1008.5
20260505215911 27 237 14.5 20.9 0.00 0.00 0.00 32 1008.5
20260505215409 27 242 8.0 11.3 0.00 0.00 0.00 31 1008.5
20260505214906 27 215 4.8 4.8 0.00 0.00 0.00 32 1008.3
20260505214404 27 243 12.9 25.7 0.00 0.00 0.00 30 1008.4
20260505213901 27 232 9.7 11.3 0.00 0.00 0.00 30 1008.6
20260505213359 27 252 14.5 22.5 0.00 0.00 0.00 29 1008.5
20260505212854 27 240 11.3 14.5 0.00 0.00 0.00 30 1008.0
20260505212352 28 257 9.7 12.9 0.00 0.00 0.00 30 1008.1
20260505211848 28 188 6.4 8.0 0.00 0.00 0.00 31 1008.2
20260505211346 28 254 9.7 14.5 0.00 0.00 0.00 30 1008.1
20260505210842 28 158 4.8 4.8 0.00 0.00 0.00 30 1008.1
20260505210339 28 232 9.7 12.9 0.00 0.00 0.00 31 1008.0
20260505205835 28 242 14.5 22.5 0.00 0.00 0.00 31 1007.9
20260505205334 28 235 11.3 14.5 0.00 0.00 0.00 31 1008.0
20260505204830 28 243 22.5 29.0 0.00 0.00 0.00 31 1008.4
20260505204328 28 222 25.7 29.0 0.00 0.00 0.00 31 1008.3
20260505203826 28 274 22.5 32.2 0.00 0.00 0.00 32 1008.1
20260505203322 28 244 1.6 4.8 0.00 0.00 0.00 34 1008.3